Location: Newark
(46.2358°N, 112.1211°W)
Time: 17:10:46
(UTC+00:00)

Envisat - Pass Details

Date: 27 July 2021
Orbit: 764 x 766 km, 98.2° (Epoch: 17 September)

Event Time Altitude Azimuth Distance (km) Brightness Sun altitude
Rises 11:11:10 0° 35° (NE) 3,243 8.0 -8.5°
Reaches altitude 10° 11:16:05 10° 77° (ENE) 2,307 6.7 -7.8°
Maximum altitude 11:16:47 10° 85° (E) 2,288 6.4 -7.7°
Drops below altitude 10° 11:17:28 10° 93° (E) 2,305 6.3 -7.6°
Sets 11:22:21 0° 135° (SE) 3,221 6.3 -7.0°
